Temp
56 56 61 65 67 68 67 66 66 66 66 65 65 66 66 67 67 68 68 68 68 68 67 68 68 69 69 68 67 68 67 66
55 55 56 56 57 66 66 65 64 64 64 63 62 61 63 64 64 66 65 65 65 65 65 65 66 67 68 67 67 68 66 66
53 53 53 55 57 61 61 62 61 60 58 60 56 54 56 56 62 62 62 62 62 62 63 62 62 63 65 66 67 68 67 67
51 51 52 53 60 53 53 56 54 53 53 52 52 51 54 55 57 58 58 59 59 59 59 59 58 58 59 62 64 67 69 67
52 52 51 51 52 50 50 50 51 51 51 50 49 50 50 51 50 50 50 54 52 53 52 52 52 52 54 55 57 58 61 64
51 51 51 50 50 50 50 51 50 50 50 50 47 47 47 48 48 47 48 48 48 48 48 49 49 51 52 52 53 53 56 57
49 50 49 50 50 49 49 48 48 48 49 50 48 47 46 46 46 46 46 47 46 46 46 47 47 48 50 51 51 52 53 55
49 49 49 50 49 48 47 48 48 48 48 48 48 46 45 45 45 45 45 45 45 44 44 44 45 46 48 49 49 50 51 52
50 50 48 48 48 48 48 48 48 47 47 48 47 46 44 43 43 43 44 44 44 44 44 44 43 45 45 46 48 48 50 50
48 52 48 47 47 47 48 47 46 46 46 46 46 46 45 43 43 42 43 43 43 43 42 41 42 42 42 44 45 46 48 49
46 46 46 47 47 46 46 46 45 45 45 45 45 45 45 42 42 42 42 42 42 42 41 41 40 41 43 44 44 44 45 50
46 46 45 46 45 46 45 44 44 45 46 46 45 44 44 42 42 41 42 41 41 41 40 41 41 41 43 43 43 43 44 46
44 44 44 44 43 43 43 42 43 44 46 45 44 44 43 42 41 41 42 41 40 41 40 40 40 42 39 39 40 44 44 46
44 44 44 43 43 42 43 43 42 42 43 43 43 43 43 43 41 40 41 39 39 39 39 37 41 42 38 35 34 38 42 44
44 44 43 43 43 43 42 42 41 40 40 41 42 43 43 42 41 40 39 39 37 38 38 39 37 40 42 36 32 32 35 40
42 43 43 44 43 41 40 38 36 37 38 39 40 41 41 41 41 40 38 38 37 38 39 39 36 35 40 41 40 37 32 32
41 42 43 44 44 43 41 39 37 38 37 37 37 38 38 39 38 38 37 36 37 37 36 37 36 36 35 36 37 37 38 32
39 42 40 41 41 41 39 37 35 34 34 34 34 35 35 36 37 36 36 35 35 36 37 35 36 35 34 33 32 32 32 30
39 40 37 39 38 38 37 36 35 34 33 33 32 32 32 33 34 34 33 33 35 36 36 35 34 32 32 32 32 33 32 31
38 37 36 37 38 37 38 37 36 35 34 32 32 32 32 33 32 33 32 32 35 37 35 34 34 32 29 31 32 32 30 31
MSLP
1017.18 1017.12 1016.85 1016.81 1016.87 1016.92 1016.96 1016.65 1016.45 1016.47 1016.46 1016.37 1016.32 1016.19 1015.98 1015.78 1015.60 1015.37 1015.23 1015.04 1014.78 1014.48 1014.42 1014.15 1013.95 1013.76 1013.71 1013.65 1013.65 1013.61 1013.65 1013.49
1017.48 1017.50 1017.46 1017.49 1017.53 1017.41 1017.42 1017.33 1017.22 1017.11 1016.88 1016.80 1016.83 1016.70 1016.61 1016.43 1016.14 1015.88 1015.91 1015.67 1015.35 1015.10 1014.79 1014.45 1014.17 1014.03 1013.73 1013.55 1013.40 1013.31 1013.35 1013.31
1017.83 1017.86 1017.89 1017.81 1017.90 1017.98 1017.97 1017.91 1017.65 1017.44 1017.42 1017.32 1017.24 1017.30 1017.15 1017.10 1016.80 1016.59 1016.41 1016.27 1016.06 1015.67 1015.30 1014.97 1014.46 1014.23 1014.06 1013.70 1013.32 1013.24 1013.11 1012.99
1018.43 1018.38 1018.41 1018.19 1018.13 1018.27 1018.25 1018.06 1017.91 1017.66 1017.61 1017.52 1017.68 1017.87 1017.73 1017.60 1017.37 1017.18 1016.87 1016.66 1016.61 1016.39 1015.90 1015.50 1015.12 1014.81 1014.50 1014.18 1013.89 1013.49 1012.97 1012.69
1018.96 1018.81 1018.84 1018.79 1018.72 1018.68 1018.68 1018.57 1018.46 1018.29 1018.19 1018.03 1017.86 1017.94 1018.08 1018.03 1017.95 1017.73 1017.50 1017.10 1017.07 1016.80 1016.60 1016.12 1015.99 1015.53 1015.08 1014.76 1014.43 1014.06 1013.60 1013.10
1019.20 1019.04 1018.91 1018.89 1018.88 1019.00 1019.02 1019.06 1019.16 1019.29 1018.90 1018.71 1018.67 1018.39 1018.46 1018.61 1018.48 1018.40 1018.11 1017.88 1017.65 1017.40 1017.30 1016.89 1016.37 1015.94 1015.45 1014.97 1014.74 1014.38 1013.94 1013.58
1019.55 1019.45 1019.39 1019.35 1019.37 1019.55 1019.60 1019.77 1019.91 1019.89 1019.58 1019.25 1019.30 1019.23 1019.27 1019.12 1019.18 1019.12 1018.86 1018.46 1018.19 1017.78 1017.62 1017.34 1016.88 1016.30 1015.74 1015.21 1014.91 1014.34 1013.99 1013.67
1019.84 1019.94 1019.90 1019.78 1019.98 1020.05 1020.17 1020.30 1020.41 1020.25 1020.15 1020.11 1019.98 1019.78 1019.70 1019.73 1019.46 1019.64 1019.51 1019.13 1018.72 1018.38 1018.02 1017.65 1017.27 1016.72 1015.99 1015.45 1014.99 1014.55 1014.17 1013.74
1019.83 1019.80 1019.88 1020.08 1020.30 1020.30 1020.39 1020.54 1020.55 1020.59 1020.57 1020.44 1020.37 1020.32 1020.17 1020.08 1019.96 1019.84 1019.84 1019.56 1019.19 1018.79 1018.47 1017.99 1017.60 1016.91 1016.32 1015.71 1015.08 1014.58 1014.32 1013.90
1020.10 1019.91 1020.04 1020.06 1020.11 1020.37 1020.74 1020.82 1020.84 1021.12 1021.12 1021.03 1021.08 1021.03 1020.76 1020.26 1020.21 1020.00 1019.90 1019.81 1019.64 1019.17 1018.78 1018.36 1018.00 1017.28 1016.39 1015.29 1014.91 1014.65 1014.35 1013.93
1020.50 1020.63 1020.68 1020.72 1020.67 1020.93 1021.17 1021.40 1021.43 1021.42 1021.37 1021.51 1021.39 1021.11 1020.98 1020.99 1020.66 1020.52 1020.12 1019.97 1019.80 1019.57 1019.15 1018.78 1018.27 1017.53 1016.62 1015.59 1014.71 1014.45 1014.36 1014.01
1020.82 1021.01 1021.15 1021.17 1021.28 1021.50 1021.76 1022.05 1022.30 1022.16 1022.12 1022.19 1022.17 1021.84 1021.31 1020.93 1021.06 1021.11 1020.78 1020.27 1020.07 1019.79 1019.44 1019.04 1018.62 1017.87 1016.69 1015.61 1014.94 1014.49 1014.31 1014.36
1021.17 1021.27 1021.44 1021.47 1021.81 1021.95 1022.20 1022.65 1022.70 1022.69 1022.61 1022.64 1022.40 1022.36 1022.01 1021.62 1021.38 1021.08 1020.83 1020.95 1020.67 1020.30 1019.98 1019.41 1018.87 1018.04 1016.85 1015.69 1014.94 1014.49 1014.54 1014.54
1021.40 1021.51 1021.62 1021.59 1022.04 1022.36 1022.48 1022.89 1023.19 1023.25 1023.09 1023.01 1022.93 1022.73 1022.38 1022.07 1021.91 1021.67 1021.56 1021.26 1021.26 1020.93 1020.63 1020.20 1019.58 1019.17 1018.91 1018.03 1016.94 1015.48 1014.77 1014.64
1021.69 1021.79 1021.97 1021.83 1021.91 1022.37 1022.70 1022.95 1023.31 1023.60 1023.65 1023.54 1023.49 1023.20 1022.87 1022.50 1022.47 1022.37 1022.23 1021.96 1021.76 1021.58 1021.23 1020.84 1020.36 1020.05 1019.67 1019.80 1019.10 1018.49 1017.28 1015.44
1021.63 1021.79 1021.91 1022.03 1022.09 1022.59 1023.12 1023.32 1023.61 1024.02 1024.17 1024.01 1023.91 1023.73 1023.52 1023.12 1022.93 1022.81 1022.87 1022.66 1022.26 1022.10 1021.82 1021.38 1021.28 1020.79 1020.39 1020.57 1020.55 1020.45 1019.34 1017.24
1021.81 1022.04 1022.12 1022.26 1022.21 1022.71 1023.40 1023.89 1024.06 1024.33 1024.65 1024.55 1024.45 1024.25 1024.12 1023.78 1023.64 1023.31 1023.27 1023.22 1022.69 1022.73 1022.38 1022.00 1021.81 1021.62 1021.49 1021.22 1020.97 1020.53 1020.29 1020.21
1022.29 1022.51 1022.83 1022.99 1023.09 1023.13 1023.50 1024.28 1024.75 1024.73 1024.71 1024.73 1024.98 1025.00 1024.62 1024.41 1024.14 1024.03 1023.92 1023.46 1023.17 1022.99 1022.85 1022.44 1022.27 1022.26 1022.19 1022.22 1021.85 1021.49 1021.34 1021.29
1022.72 1022.93 1023.26 1023.50 1023.66 1024.04 1024.26 1023.89 1024.77 1025.18 1025.46 1025.46 1025.07 1025.43 1025.14 1024.76 1024.66 1024.64 1024.54 1024.03 1023.52 1023.20 1023.12 1022.84 1022.72 1022.77 1022.72 1022.63 1022.40 1022.25 1022.35 1021.87
1023.10 1023.35 1023.68 1023.90 1024.26 1024.30 1024.28 1025.00 1025.06 1025.45 1025.60 1025.77 1025.78 1025.62 1025.68 1025.35 1025.12 1025.14 1025.05 1024.75 1023.90 1023.60 1023.61 1023.28 1023.20 1023.18 1023.24 1022.98 1022.78 1022.65 1022.72 1022.38
Wind_Speed
7 7 10 12 15 14 15 16 17 16 16 16 16 17 17 17 17 16 17 18 17 18 17 17 15 9 10 9 7 7 5 4
7 7 7 7 7 15 15 16 17 17 18 18 16 16 17 18 17 18 18 18 18 18 17 17 17 15 12 11 9 9 5 5
6 7 6 6 6 9 11 15 17 17 15 18 13 7 9 11 17 18 19 18 19 18 18 17 16 15 16 15 10 3 4 3
6 6 6 5 5 5 5 6 6 7 7 8 6 7 9 10 13 18 18 19 18 19 18 17 14 7 6 12 6 8 5 4
5 6 5 5 4 4 3 3 3 4 7 6 5 5 5 6 6 7 7 14 7 10 10 7 9 7 6 6 7 7 6 6
4 5 5 5 3 4 4 4 4 5 6 7 5 4 6 6 5 6 7 6 8 7 6 9 9 9 8 8 7 6 5 5
5 6 5 4 6 4 4 5 4 4 5 8 6 6 6 5 6 6 6 6 7 6 7 7 8 9 8 8 9 8 8 5
4 7 6 5 6 6 4 4 4 4 5 6 7 6 5 5 5 6 6 6 6 5 7 7 7 8 8 9 9 8 9 8
6 6 6 6 5 5 4 4 5 4 4 6 6 6 5 5 5 6 6 6 8 6 7 6 6 7 9 8 7 8 8 8
7 6 7 7 6 5 4 4 4 4 4 4 7 7 6 6 5 6 5 5 6 7 8 9 8 9 9 8 7 6 6 6
8 7 7 7 7 5 6 6 5 4 4 4 6 7 8 6 6 5 5 5 6 6 7 8 8 10 11 9 7 4 4 5
7 6 6 6 5 5 4 5 5 5 5 6 6 6 8 6 6 6 5 6 7 7 8 7 6 11 10 8 7 4 1 6
7 7 5 4 4 4 3 3 3 4 5 7 7 7 7 8 6 7 6 8 9 9 7 9 9 12 7 4 4 5 4 9
7 7 6 5 3 2 3 3 3 3 3 6 7 8 9 9 7 8 9 6 8 9 10 7 7 10 7 3 7 6 6 7
7 6 6 5 6 3 3 4 3 3 3 4 7 8 9 9 10 9 8 7 7 8 8 10 7 7 10 5 5 5 11 3
7 6 7 6 7 6 6 4 4 2 3 3 5 9 9 9 9 8 8 6 7 7 7 7 6 7 4 7 4 4 5 9
6 6 6 6 7 7 6 6 4 3 3 5 6 7 8 9 8 8 8 6 7 7 7 9 5 6 6 6 5 5 3 5
6 8 7 6 6 7 8 7 5 4 4 4 4 4 5 8 7 7 7 7 7 6 7 7 8 6 5 5 5 5 7 5
7 8 7 6 7 6 6 9 8 6 5 4 4 3 3 6 7 7 6 8 7 7 7 7 8 7 8 6 5 6 6 6
8 8 8 7 6 6 8 6 5 4 5 4 3 3 4 6 7 6 8 8 8 8 6 6 7 7 9 7 7 6 6 7
Wind_Direction
34 24 35 39 48 62 60 55 52 50 52 47 43 42 41 41 35 38 40 39 35 34 28 22 11 337 315 300 288 279 281 272
41 35 34 41 32 60 61 54 50 49 47 44 41 38 37 35 36 40 33 30 26 23 21 19 12 1 8 354 305 284 267 260
55 51 44 43 49 57 57 57 54 50 41 38 33 23 27 27 35 29 30 26 20 19 16 15 12 5 358 348 352 319 288 266
52 56 53 57 69 62 65 66 54 55 47 42 35 25 32 38 31 27 24 25 18 14 15 13 12 360 354 354 348 335 310 287
49 61 56 60 54 59 47 40 46 42 41 36 44 47 30 30 24 15 12 16 15 12 4 10 358 355 350 343 333 331 333 330
60 59 67 69 73 64 68 57 41 37 37 32 26 39 39 35 30 19 16 8 11 12 1 351 351 346 341 339 330 323 321 315
58 59 49 52 62 56 59 53 52 39 41 41 37 38 37 34 26 18 15 8 5 7 2 354 348 342 337 334 325 321 320 319
80 55 40 46 51 69 76 64 52 48 41 40 39 43 42 32 35 22 11 5 357 352 355 351 339 333 329 329 318 318 322 319
89 76 58 54 58 75 74 61 58 55 46 50 57 49 48 43 38 28 10 360 5 0 357 351 341 335 324 318 310 313 316 322
66 70 69 72 85 95 80 70 71 54 46 50 44 41 36 52 44 32 6 16 10 5 1 353 346 341 327 319 312 309 316 315
74 57 59 66 66 77 73 63 51 43 50 59 52 49 38 32 30 16 5 23 16 7 6 358 348 341 327 317 312 310 316 356
87 67 58 67 69 63 56 51 34 28 43 44 39 39 40 47 36 14 8 24 18 11 9 0 355 338 319 309 309 294 347 13
81 81 50 59 78 87 73 70 41 48 60 57 51 32 39 36 36 28 20 26 10 10 358 3 3 351 330 322 318 342 85 353
104 94 76 63 59 75 100 93 49 51 50 62 40 40 36 40 29 28 22 20 13 10 8 358 13 10 5 305 349 335 4 333
116 108 97 82 91 97 85 75 52 35 23 52 44 44 39 38 36 34 21 20 12 3 8 7 6 14 33 22 344 336 331 329
131 121 108 94 92 82 79 96 100 52 50 55 59 44 38 34 38 33 24 9 13 5 8 14 4 14 20 16 359 339 333 320
120 104 94 96 96 101 104 97 86 82 45 47 52 46 32 28 27 28 24 10 12 11 3 22 8 16 15 1 355 327 18 316
94 90 74 74 78 96 109 101 92 80 66 63 53 32 25 19 14 27 11 15 6 11 13 19 19 17 25 10 3 352 354 343
104 94 83 82 84 77 88 109 104 86 56 38 67 35 12 25 17 24 5 4 3 12 13 17 27 13 19 10 345 16 349 330
110 103 93 88 82 86 107 85 81 76 73 67 40 54 26 20 23 22 7 358 11 16 18 13 24 15 14 9 10 7 347 329